Location: Asheville, NC
(35.6000°N, 82.5500°W)
Time: 15:22:32
(UTC-04:00)

Vanguard 2 - Pass Details

Date: 14 March 2018
Orbit: 554 x 2939 km, 32.9° (Epoch: 24 June)

Event Time Altitude Azimuth Distance (km) Brightness Sun altitude
Rises 10:04:57 0° 215° (SW) 4,932 11.6 27.2°
Reaches altitude 10° 10:08:03 10° 208° (SSW) 4,243 11.4 27.8°
Maximum altitude 10:19:19 41° 143° (SE) 3,247 12.2 29.8°
Drops below altitude 10° 10:34:40 10° 81° (E) 5,739 12.8 32.6°
Sets 10:39:39 0° 76° (ENE) 6,794 12.9 33.4°
